(458996) = 2011 WB134

Discovered at Kitt Peak on 2007-09-11 by Spacewatch.

Orbit

Orbit type: Main Belt

Note: WebGL enabled browser required.

epoch2023-02-25.0
epoch JD2460000.5
perihelion date2022-12-22.00026
perihelion JD2459935.50026
argument of perihelion (°)91.04340
ascending node (°)338.86739
inclination (°)0.75003
eccentricity0.1623598
perihelion distance (AU)1.9952846
Tisserand w.r.t. Jupiter3.5
ΔV w.r.t. Earth (km/sec)8.8
semimajor axis (AU)2.3820306
mean anomaly (°)17.42587
mean daily motion (°/day)0.26809140
aphelion distance (AU)2.769
period (years)3.68
P-vector [x]0.34345185
P-vector [y]0.85638211
P-vector [z]0.38555221
Q-vector [x]-0.93915843
Q-vector [y]0.31523540
Q-vector [z]0.13641147
absolute magnitude18.55
phase slope0.15
uncertainty0
referenceMPO 731410
observations used98
oppositions8
arc length (days)6478
first opposition used2005
last opposition used2022
residual rms (arc-secs)0.84
perturbers coarse indicatorM-v
perturbers precise indicator003El
first observation date used2005-03-04.0
last observation date used2022-11-28.0
computer nameMPCLINUX
JD of orbit computation2457430.112461
perihelion JD uncertainty (days)7.8196E-05
argument of perihelion uncertainty (°)2.6234E-04
ascending node uncertainty (°)2.6142E-04
inclination uncertainty (°)4.2922E-06
eccentricity uncertainty 4.4910E-08
perihelion distance uncertainty (AU)9.6471E-08
Minimum Orbit Intersection Distances (in AU)
for orbit epoch: 2460000.5, reference: E2022-WP2
Mercury1.68723
Venus1.27452
Earth1.00855
Mars0.4393
Jupiter2.50412
Saturn7.01667
Uranus15.958
Neptune27.6201

Observations

102 total observations over interval: 2005 03 04.19882 – 2022 11 28.297708
These data are available for download (format description).

Date (UT) J2000 RA J2000 Dec Magn Location Ref
2005 03 04.19882 08 49 25.35 +18 06 33.5 21.1 R G96 – Mt. Lemmon Survey MPS 428380
2005 03 04.20411 08 49 25.20 +18 06 33.6 20.4 R G96 – Mt. Lemmon Survey MPS 428380
2005 03 04.20939 08 49 25.00 +18 06 34.0 21.5 R G96 – Mt. Lemmon Survey MPS 428380
2005 03 04.21468 08 49 24.83 +18 06 34.6 21.4 R G96 – Mt. Lemmon Survey MPS 428380
2007 09 11.28258 00 12 03.71 +01 44 55.2 21.1 V 691 – Steward Observatory, Kitt Peak-Spacewatch MPS 428380
2007 09 11.30016 00 12 02.79 +01 44 49.7 21.0 V 691 – Steward Observatory, Kitt Peak-Spacewatch MPS 428380
2007 09 11.32121 00 12 01.77 +01 44 44.8 21.1 V 691 – Steward Observatory, Kitt Peak-Spacewatch MPS 428380
2007 10 10.26894 23 46 24.74 -00 48 41.1 21.3 V G96 – Mt. Lemmon Survey MPS 428380
2007 10 10.27630 23 46 24.38 -00 48 43.0 21.1 V G96 – Mt. Lemmon Survey MPS 428380
2007 10 10.28370 23 46 23.95 -00 48 45.2 21.0 V G96 – Mt. Lemmon Survey MPS 428380
2007 10 10.29097 23 46 23.62 -00 48 47.7 20.9 V G96 – Mt. Lemmon Survey MPS 428380
2011 10 23.45009 04 34 57.37 +23 16 19.5 21.7 V 691 – Steward Observatory, Kitt Peak-Spacewatch MPS 404275
2011 10 23.47082 04 34 57.09 +23 16 20.5 21.3 V 691 – Steward Observatory, Kitt Peak-Spacewatch MPS 404275
2011 10 23.48860 04 34 56.89 +23 16 20.2 21.3 V 691 – Steward Observatory, Kitt Peak-Spacewatch MPS 404275
2011 11 17.17424 04 20 14.33 +22 56 30.4 20.7 V 691 – Steward Observatory, Kitt Peak-Spacewatch MPS 403968
2011 11 17.18442 04 20 13.75 +22 56 28.9 20.3 V 691 – Steward Observatory, Kitt Peak-Spacewatch MPS 403968
2011 11 17.19459 04 20 13.18 +22 56 28.3 20.3 V 691 – Steward Observatory, Kitt Peak-Spacewatch MPS 403968
2011 11 22.74631 04 14 42.19 +22 44 26.1 20.2 R D29 – Purple Mountain Observatory, XuYi Station MPS 403968
2011 11 22.76232 04 14 41.30 +22 44 23.7 19.8 R D29 – Purple Mountain Observatory, XuYi Station MPS 403968
2011 11 22.77830 04 14 40.31 +22 44 20.8 19.5 R D29 – Purple Mountain Observatory, XuYi Station MPS 403968
2011 11 28.49903 04 08 43.935 +22 29 44.68 20.4 g F51 – Pan-STARRS 1, Haleakala MPS 404275
2011 11 28.52650 04 08 42.133 +22 29 40.06 20.2 r F51 – Pan-STARRS 1, Haleakala MPS 404275
2011 11 28.53942 04 08 41.288 +22 29 37.86 20.2 r F51 – Pan-STARRS 1, Haleakala MPS 404275
2011 11 29.11069 04 08 06.55 +22 28 01.2   691 – Steward Observatory, Kitt Peak-Spacewatch MPS 403968
2011 11 29.13593 04 08 04.97 +22 27 58.1   691 – Steward Observatory, Kitt Peak-Spacewatch MPS 403968
2011 11 29.15114 04 08 03.96 +22 27 55.8   691 – Steward Observatory, Kitt Peak-Spacewatch MPS 403968
2014 07 28.44479 21 05 15.804 -17 18 12.66 21.6 w F51 – Pan-STARRS 1, Haleakala MPS 523810
2014 07 28.46853 21 05 14.367 -17 18 18.10 21.8 w F51 – Pan-STARRS 1, Haleakala MPS 523810
2014 07 28.48040 21 05 13.648 -17 18 21.10 21.9 w F51 – Pan-STARRS 1, Haleakala MPS 523810
2014 07 29.37872 21 04 21.718 -17 21 52.39 21.5 w F51 – Pan-STARRS 1, Haleakala MPS 523810
2014 07 29.39085 21 04 20.963 -17 21 55.09 21.6 w F51 – Pan-STARRS 1, Haleakala MPS 523810
2014 07 29.40303 21 04 20.252 -17 21 58.18 21.7 w F51 – Pan-STARRS 1, Haleakala MPS 523810
2014 08 03.38940 20 59 23.186 -17 41 38.97 21.3 w F51 – Pan-STARRS 1, Haleakala MPS 525590
2014 08 03.40126 20 59 22.437 -17 41 41.73 21.8 w F51 – Pan-STARRS 1, Haleakala MPS 525590
2014 08 03.41309 20 59 21.699 -17 41 44.55 21.4 w F51 – Pan-STARRS 1, Haleakala MPS 525590
2014 08 03.42496 20 59 20.975 -17 41 47.38 21.6 w F51 – Pan-STARRS 1, Haleakala MPS 525590
2014 08 04.42291 20 58 20.472 -17 45 42.72 21.1 w F51 – Pan-STARRS 1, Haleakala MPS 525590
2014 08 04.43509 20 58 19.713 -17 45 45.51 21.1 w F51 – Pan-STARRS 1, Haleakala MPS 525590
2014 08 04.44727 20 58 18.942 -17 45 48.48 21.2 w F51 – Pan-STARRS 1, Haleakala MPS 525590
2016 01 18.40141 09 05 01.786 +17 28 04.90 20.8 r F51 – Pan-STARRS 1, Haleakala MPS 671879
2016 01 18.41497 09 05 00.995 +17 28 08.08 20.8 r F51 – Pan-STARRS 1, Haleakala MPS 671879
2016 01 18.42822 09 05 00.195 +17 28 10.94 20.9 r F51 – Pan-STARRS 1, Haleakala MPS 671879
2016 01 28.28258 08 55 00.51 +18 06 19.4 20.5 V G96 – Mt. Lemmon Survey MPS 674069
2016 01 28.28897 08 55 00.06 +18 06 21.1 20.8 V G96 – Mt. Lemmon Survey MPS 674069
2016 01 28.29537 08 54 59.62 +18 06 22.5 20.9 V G96 – Mt. Lemmon Survey MPS 674069
2016 01 28.30176 08 54 59.19 +18 06 23.8 20.8 V G96 – Mt. Lemmon Survey MPS 674069
2016 01 29.49365 08 53 43.334 +18 11 02.05 20.2 r F51 – Pan-STARRS 1, Haleakala MPS 675349
2016 01 29.50493 08 53 42.592 +18 11 04.57 20.6 r F51 – Pan-STARRS 1, Haleakala MPS 675349
2016 01 29.51618 08 53 41.844 +18 11 07.19 20.6 r F51 – Pan-STARRS 1, Haleakala MPS 675349
2016 01 29.52747 08 53 41.081 +18 11 09.75 20.6 r F51 – Pan-STARRS 1, Haleakala MPS 675349
2016 02 09.32927 08 42 32.170 +18 49 43.80 20.9 w F51 – Pan-STARRS 1, Haleakala MPS 679167
2016 02 09.34154 08 42 31.427 +18 49 46.35 21.1 w F51 – Pan-STARRS 1, Haleakala MPS 679167
2016 02 09.35369 08 42 30.687 +18 49 48.59 21.0 w F51 – Pan-STARRS 1, Haleakala MPS 679167
2016 02 11.30735 08 40 38.707 +18 55 50.43 20.9 w F51 – Pan-STARRS 1, Haleakala MPS 679167
2016 02 11.31900 08 40 38.017 +18 55 52.46 20.9 w F51 – Pan-STARRS 1, Haleakala MPS 679167
2018 08 18.56091 00 05 10.557 +00 44 01.46 21.3 w F51 – Pan-STARRS 1, Haleakala MPS 912223
2018 08 18.57087 00 05 10.320 +00 43 59.96 21.6 w F51 – Pan-STARRS 1, Haleakala MPS 912223
2018 08 18.59062 00 05 09.851 +00 43 57.57 21.7 w F51 – Pan-STARRS 1, Haleakala MPS 912223
2018 09 07.37202 23 53 07.35 -00 24 38.4 21.4 G G96 – Mt. Lemmon Survey MPS 914515
2018 09 07.37808 23 53 07.09 -00 24 40.0 22.4 G G96 – Mt. Lemmon Survey MPS 914515
2018 09 07.38318 23 53 06.81 -00 24 41.6 21.1 G G96 – Mt. Lemmon Survey MPS 914515
2018 09 07.38828 23 53 06.52 -00 24 43.9 20.5 G G96 – Mt. Lemmon Survey MPS 914515
2018 09 13.24431 23 48 02.34 -00 54 46.2 20.2 G G96 – Mt. Lemmon Survey MPS 918918
2018 09 13.24972 23 48 01.94 -00 54 48.3 20.3 G G96 – Mt. Lemmon Survey MPS 918918
2018 09 13.25503 23 48 01.63 -00 54 50.2 20.9 G G96 – Mt. Lemmon Survey MPS 918918
2018 09 13.26034 23 48 01.33 -00 54 51.7 21.4 G G96 – Mt. Lemmon Survey MPS 918918
2018 10 04.35554 23 29 00.031 -02 48 36.94 21.4 w F52 – Pan-STARRS 2, Haleakala MPS 924036
2018 10 04.36723 23 28 59.414 -02 48 40.27 20.9 w F52 – Pan-STARRS 2, Haleakala MPS 924036
2018 10 04.37891 23 28 58.813 -02 48 43.40 21.2 w F52 – Pan-STARRS 2, Haleakala MPS 924036
2018 10 06.19759 23 27 33.02 -02 57 18.9 22.0 G G96 – Mt. Lemmon Survey MPS 924036
2018 10 06.20323 23 27 32.72 -02 57 19.7 21.5 G G96 – Mt. Lemmon Survey MPS 924036
2018 10 06.20889 23 27 32.44 -02 57 21.5 21.5 G G96 – Mt. Lemmon Survey MPS 924036
2020 03 16.35073 11 54 13.77 +00 10 54.1 22.1 G G96 – Mt. Lemmon Survey MPS 1171933
2020 03 16.35643 11 54 13.45 +00 10 56.6 21.6 G G96 – Mt. Lemmon Survey MPS 1171933
2020 03 16.36213 11 54 13.11 +00 10 58.1 21.4 G G96 – Mt. Lemmon Survey MPS 1171933
2020 03 16.36783 11 54 12.82 +00 11 00.4 20.9 G G96 – Mt. Lemmon Survey MPS 1171933
2020 03 23.46251 11 47 26.233 +00 52 42.16 21.3 w F51 – Pan-STARRS 1, Haleakala MPS 1171933
2020 03 23.47435 11 47 25.550 +00 52 46.30 21.3 w F51 – Pan-STARRS 1, Haleakala MPS 1171933
2020 03 23.48614 11 47 24.854 +00 52 50.47 21.4 w F51 – Pan-STARRS 1, Haleakala MPS 1171933
2020 03 23.49794 11 47 24.157 +00 52 54.49 21.3 w F51 – Pan-STARRS 1, Haleakala MPS 1171933
2022 09 26.508813 04 02 43.963 +21 42 11.09 21.65 w F52 – Pan-STARRS 2, Haleakala MPS 1663191
2022 09 26.521442 04 02 44.386 +21 42 12.78 21.68 w F52 – Pan-STARRS 2, Haleakala MPS 1663191
2022 09 26.534184 04 02 44.770 +21 42 14.34 21.88 w F52 – Pan-STARRS 2, Haleakala MPS 1663191
2022 09 26.546958 04 02 45.151 +21 42 16.02 21.70 w F52 – Pan-STARRS 2, Haleakala MPS 1663191
2022 10 28.426757 04 02 45.458 +22 03 06.09 20.82 w F52 – Pan-STARRS 2, Haleakala MPS 1700197
2022 10 28.448644 04 02 44.608 +22 03 04.88 20.83 w F52 – Pan-STARRS 2, Haleakala MPS 1700197
2022 10 28.460659 04 02 44.143 +22 03 04.30 20.83 w F52 – Pan-STARRS 2, Haleakala MPS 1700197
2022 10 28.472802 04 02 43.667 +22 03 03.65 20.80 w F52 – Pan-STARRS 2, Haleakala MPS 1700197
2022 10 31.373405 04 00 54.037 +21 59 33.26 20.78 w F52 – Pan-STARRS 2, Haleakala MPS 1700197
2022 10 31.387315 04 00 53.435 +21 59 32.20 20.76 w F52 – Pan-STARRS 2, Haleakala MPS 1700197
2022 10 31.401218 04 00 52.827 +21 59 31.20 20.87 w F52 – Pan-STARRS 2, Haleakala MPS 1700197
2022 11 16.320916 03 46 59.907 +21 24 38.52 20.26 w F52 – Pan-STARRS 2, Haleakala MPS 1715642
2022 11 16.334181 03 46 59.074 +21 24 36.39 20.24 w F52 – Pan-STARRS 2, Haleakala MPS 1715642
2022 11 16.347443 03 46 58.235 +21 24 34.25 20.29 w F52 – Pan-STARRS 2, Haleakala MPS 1715642
2022 11 16.388190 03 46 55.247 +21 24 25.92 19.54 G G96 – Mt. Lemmon Survey MPS 1715642
2022 11 16.393313 03 46 54.905 +21 24 24.30 19.91 G G96 – Mt. Lemmon Survey MPS 1715642
2022 11 16.398438 03 46 54.584 +21 24 23.44 20.29 G G96 – Mt. Lemmon Survey MPS 1715642
2022 11 16.403559 03 46 54.224 +21 24 22.90 20.41 G G96 – Mt. Lemmon Survey MPS 1715642
2022 11 28.275008 03 34 55.942 +20 46 10.52 20.18 G G96 – Mt. Lemmon Survey MPS 1715642
2022 11 28.287475 03 34 55.182 +20 46 08.11 20.57 G G96 – Mt. Lemmon Survey MPS 1715642
2022 11 28.292588 03 34 54.844 +20 46 06.96 20.16 G G96 – Mt. Lemmon Survey MPS 1715642
2022 11 28.297708 03 34 54.570 +20 46 06.20 20.56 G G96 – Mt. Lemmon Survey MPS 1715642